Showing default

COSMOS 2573, 58614

Orbit data source: Space-Track

COSMOS 2573, 58614 is a payload satellite owned by VVKO VKS (CIS) in SSO that was launched on Thu, 21 Dec 2023 UTC via a SOYUZ-2-1A launch vehicle from the Plesetsk Missile And Space Complex (PKMTR). Payload-class satellites include a variety of spacecraft equipped with specific instruments for various scientific and technological missions. These include communications satellites like Starlink; space stations such as the ISS; scientific satellites like the Hubble; Earth observation satellites from companies like Planet Labs, Umbra, and HawkEye 360; GPS; miniature CubeSats for education and research; and military/defense satellites.

Loading next visibility...
Identifier
58614, 2023-201A
Orbit
SSO
Country
Flag of CISCIS
Related business
Manufacturer
Arsenal
Mission
Operational Defense Imaging
Bus & Motor
BARS, AOCS
Mass
3,700 kg wet, ~3,500 kg dry
Launch date (UTC)
2023-12-21 (3 years ago)
Launch vehicle
SOYUZ-2-1A
Launch site
Plesetsk Missile And Space Complex (PKMTR)
Object type
Payload
Rocket body
Debris
Shape & HBR
Cyl + 2 Pan, 5.0 m
Radar Cross Section
20.881 m², Large (>1 m²)

Expand to show TLE details & history
Last TLE update: 22 hours ago

TLE from 22 hours ago
0 COSMOS 2573
1 58614U 23201A   26172.51413427  .00002765  00000-0  11419-3 0  9996
2 58614  97.6274 122.0387 0002450  60.7395 299.4087 15.24903923139140
Epoch: 2026-06-21T12:20Z
TLE epoch observation values (Epoch: 2026-06-21T12:20:21.200Z)
Latitude
-0.00004°
Longitude
27.23706°
Altitude
493.338 km
Speed
7.619 km/s
True Right ascension
08h 08m 09s
True Declination
0° 00' 00"
Sunlit
Object was in daylight at epoch
Visualization orbit readout
Latitude
Unknown
Longitude
Unknown
Altitude
Unknown
Speed
Unknown
Apparent Right ascension
Unknown
Apparent Declination
Unknown
Sunlit
N/A
Visualization observer readout
Local Sidereal Time
21:29:06
Azimuth
Unknown
Elevation
Unknown
Doppler factor
Unknown
Orbital elements
Apogee altitude
489.725 km
Perigee altitude
486.361 km
Semi-major axis
6,866.18 km
Eccentricity
0.00025
Inclination
97.6274°
RAAN
122.0387°
Arg. of periapsis
60.7395°
True anomaly
299.38424°
Mean anomaly
299.4087°
Eccentric anomaly
299.39647°
Mean motion
3.81479 °/min
Orbital period
94.37 mins
BSTAR
0.00011419
Loading maneuver chart data...
Computing Atmospheric mass density...
Loading historical data...
Loading historical data...
Loading historical data...
Loading historical data...
Loading historical data...
Loading historical data...
Loading historical data...
Other satellites on launch #201 in the year 2023 (2023-12-21 UTC)

Documentation

Showing up to 5 results
|